User: anonymous   Login
Location: Newark
(35.0033°N, 81.0878°W)
Time: 19:19:40
(UTC+00:00)
Language:

M-CUBED/EXP-1 PRIME - Orbit

View from above orbital plane
View from above orbital plane
View from above satellite
View from above satellite

Ground track
Ground track

The orbit data is extracted from the following two-line orbital elements,

1 37855U 11061F   19315.60524539 +.00002490 +00000-0 +13071-3 0  9990
2 37855 101.7206 286.1478 0172749 004.1743 356.0863 15.05759221438263
Epoch (UTC): 11 November 2019 14:31:33
Eccentricity: 0.0172749
inclination: 101.7206°
perigee height: 429 km
apogee height: 669 km
right ascension of ascending node: 286.1478°
argument of perigee: 4.1743°
revolutions per day: 15.05759221
mean anomaly at epoch: 356.0863°
orbit number at epoch: 43826

The dashed part of the orbit path shows where the satellite is in the earth's shadow,  

DLR